Temp
18 18 18 19 19 19 19 18 18 18 18 18 18 18 19 18 18 18 18 18 18 18 18 18 17 17 17 17 17 17 18 18 18 18 18 18 18 18 17 18 17 17 17
19 19 19 19 19 19 19 19 19 19 19 19 19 18 19 19 18 18 19 18 18 18 18 17 17 17 17 17 18 17 17 17 18 17 17 17 17 18 17 17 17 17 17
19 20 20 19 19 19 19 19 18 19 19 19 19 18 19 19 18 19 18 19 18 18 18 17 17 17 17 17 17 17 17 17 17 17 17 17 17 17 17 17 17 17 17
19 19 19 19 19 19 19 19 19 19 19 19 19 19 19 19 18 18 19 19 18 18 18 18 18 17 17 17 17 18 17 17 17 17 17 17 17 17 17 16 17 17 17
19 19 18 19 19 19 19 19 19 19 18 18 19 19 19 19 19 19 18 18 17 18 18 18 18 17 17 17 17 17 18 17 17 17 17 17 17 17 17 17 17 17 17
19 19 19 19 19 20 19 19 19 19 19 19 19 19 18 18 19 18 18 18 18 17 18 17 17 18 17 17 17 17 17 17 17 17 17 17 17 17 17 18 17 17 17
19 18 19 19 19 20 20 19 19 19 19 19 18 19 19 18 18 19 18 18 18 17 17 18 18 18 17 17 17 17 17 17 17 17 17 17 17 17 17 17 17 17 17
19 19 19 19 19 20 20 20 20 19 19 19 19 19 18 18 18 18 18 18 18 18 17 17 18 18 18 17 17 17 17 17 17 17 17 17 18 17 17 17 17 17 17
18 19 19 19 19 19 20 20 20 19 19 19 19 19 19 18 18 18 18 18 18 18 18 17 17 18 18 17 17 17 17 17 17 17 17 17 17 17 17 17 17 16 17
19 19 19 19 19 20 20 20 20 19 19 19 19 19 19 18 19 18 18 18 17 17 18 17 17 18 18 18 18 17 17 17 17 17 18 17 17 17 17 17 17 17 17
19 19 19 19 19 20 20 20 20 19 19 19 19 18 18 17 17 17 17 17 17 17 17 17 17 17 18 18 18 17 17 17 17 17 18 17 17 17 17 17 17 17 17
19 19 19 19 20 20 20 20 20 19 19 18 18 18 18 17 17 17 16 16 17 17 17 17 17 17 17 18 18 17 17 17 17 17 17 17 17 17 17 17 17 17 17
19 19 19 19 20 20 20 20 20 19 19 18 19 18 18 18 18 17 17 16 17 17 18 17 18 17 17 17 18 17 17 17 17 17 17 17 17 17 16 17 17 17 17
20 19 19 19 20 20 20 19 19 19 19 19 18 18 18 18 18 18 18 17 17 17 17 17 18 18 18 17 17 17 17 17 17 17 17 17 17 17 17 17 17 17 17
20 19 19 20 20 20 19 19 20 20 20 19 19 19 19 19 19 18 18 17 17 17 17 17 17 18 18 17 17 18 17 17 17 17 17 17 18 18 18 18 17 18 18
20 19 19 20 20 20 20 20 20 20 20 19 19 19 19 19 19 19 18 18 17 17 17 17 17 18 18 17 17 17 18 17 17 17 17 17 17 17 17 17 17 17 17
20 20 19 19 19 20 20 20 20 20 20 20 20 19 19 19 19 19 18 18 17 17 18 18 18 18 18 17 18 17 18 18 18 18 18 18 18 18 17 17 17 17 17
20 20 20 20 20 20 19 20 20 20 20 20 20 20 20 19 19 19 19 18 18 18 19 19 19 19 18 18 18 18 18 18 18 18 18 18 18 18 17 17 17 16 17
21 21 21 20 20 20 20 20 20 20 20 20 20 20 20 20 19 19 19 19 18 19 19 19 19 19 19 18 18 18 18 18 18 19 19 18 18 18 17 17 16 16 17
22 21 22 21 21 21 21 21 21 20 20 20 20 20 19 19 20 19 19 19 19 19 19 19 19 18 18 18 18 18 18 18 18 18 18 18 18 18 17 17 16 16 17
23 22 22 21 21 21 21 21 21 21 20 21 21 20 20 19 19 19 19 19 19 19 19 19 19 19 18 18 18 18 18 18 18 18 18 18 18 18 17 17 17 16 16
23 23 22 22 21 21 21 21 21 21 21 21 21 20 20 20 19 19 19 19 19 19 19 19 19 18 18 18 19 19 19 20 19 19 19 19 19 18 18 17 17 17 17
24 23 23 22 22 22 21 21 21 21 20 21 21 21 20 20 19 19 19 19 19 19 19 19 19 19 19 18 19 19 20 20 20 20 20 19 19 19 19 18 18 17 17
24 24 23 23 22 22 22 21 21 21 21 21 21 21 21 20 20 20 19 19 19 19 19 19 19 19 19 19 19 19 19 19 20 21 21 21 20 20 19 19 19 18 18
25 25 24 23 23 23 22 22 21 21 21 21 21 21 21 20 20 20 20 19 19 19 20 20 20 19 19 19 19 20 20 19 20 20 20 21 20 21 20 20 19 19 18
25 24 24 24 24 23 23 23 22 21 21 21 21 21 21 21 21 21 20 19 19 19 19 20 19 19 19 19 19 19 20 20 21 20 20 20 20 21 21 21 20 20 19
Height
1548 1549 1550 1551 1552 1552 1551 1552 1553 1554 1553 1553 1553 1553 1554 1555 1555 1556 1557 1558 1558 1559 1560 1561 1561 1561 1560 1561 1562 1563 1563 1563 1563 1564 1564 1564 1565 1566 1567 1568 1569 1571 1573
1546 1548 1550 1552 1552 1553 1553 1553 1554 1555 1555 1555 1556 1556 1557 1557 1557 1558 1558 1559 1560 1561 1562 1563 1563 1563 1563 1563 1565 1566 1566 1566 1567 1568 1568 1569 1569 1570 1571 1572 1573 1574 1575
1546 1548 1550 1552 1553 1553 1554 1555 1556 1556 1556 1556 1557 1558 1558 1559 1560 1560 1561 1561 1562 1562 1563 1565 1565 1565 1565 1566 1567 1568 1569 1569 1570 1571 1571 1572 1573 1574 1575 1576 1576 1577 1578
1547 1549 1551 1552 1554 1554 1555 1556 1557 1557 1557 1558 1558 1558 1559 1559 1561 1562 1563 1564 1564 1565 1565 1566 1567 1568 1567 1568 1568 1569 1571 1572 1573 1574 1575 1576 1576 1577 1578 1579 1579 1580 1580
1548 1551 1552 1553 1554 1555 1556 1557 1558 1558 1559 1559 1560 1560 1560 1560 1561 1562 1565 1566 1566 1567 1567 1567 1568 1569 1570 1570 1570 1571 1572 1574 1575 1576 1577 1578 1578 1579 1580 1581 1582 1583 1583
1550 1551 1553 1555 1556 1556 1557 1559 1559 1560 1560 1560 1561 1562 1562 1562 1562 1563 1564 1566 1567 1567 1568 1568 1570 1570 1571 1572 1573 1573 1574 1575 1576 1578 1579 1580 1580 1580 1581 1583 1583 1585 1586
1551 1552 1554 1556 1556 1557 1558 1560 1561 1561 1562 1562 1563 1563 1563 1563 1564 1564 1565 1566 1566 1569 1568 1569 1570 1572 1573 1574 1574 1575 1576 1576 1578 1579 1580 1582 1582 1582 1582 1584 1585 1586 1588
1553 1554 1555 1556 1557 1558 1559 1561 1562 1562 1563 1563 1563 1563 1563 1564 1564 1565 1566 1567 1567 1568 1569 1570 1571 1572 1573 1575 1576 1576 1577 1578 1579 1580 1581 1582 1584 1584 1584 1585 1586 1588 1589
1553 1554 1555 1557 1557 1559 1561 1562 1562 1562 1563 1564 1565 1564 1564 1565 1564 1565 1566 1567 1568 1569 1570 1570 1572 1572 1574 1576 1577 1578 1578 1579 1581 1582 1583 1584 1585 1586 1587 1588 1589 1590 1591
1554 1555 1557 1557 1560 1561 1562 1562 1563 1563 1563 1564 1565 1565 1565 1565 1565 1566 1566 1567 1568 1569 1571 1571 1572 1573 1574 1576 1578 1579 1579 1580 1581 1583 1584 1585 1586 1588 1588 1589 1590 1590 1591
1555 1556 1558 1559 1561 1563 1562 1562 1563 1563 1564 1565 1565 1566 1567 1565 1566 1565 1566 1566 1568 1569 1571 1572 1573 1574 1574 1576 1578 1579 1580 1581 1582 1583 1585 1586 1587 1588 1589 1590 1591 1592 1592
1556 1558 1559 1560 1562 1562 1562 1563 1564 1564 1565 1565 1566 1567 1566 1565 1565 1565 1565 1566 1567 1569 1570 1572 1573 1574 1574 1576 1577 1579 1580 1581 1582 1584 1585 1586 1587 1588 1589 1590 1591 1592 1593
1559 1561 1561 1562 1562 1563 1563 1564 1565 1566 1567 1567 1567 1567 1565 1565 1565 1564 1564 1563 1566 1567 1569 1570 1572 1574 1575 1576 1577 1578 1580 1581 1582 1583 1585 1586 1587 1588 1589 1590 1592 1593 1594
1560 1562 1563 1563 1563 1564 1564 1565 1566 1568 1568 1567 1567 1566 1565 1564 1563 1563 1563 1563 1564 1564 1566 1569 1571 1573 1574 1576 1577 1579 1580 1581 1582 1582 1583 1585 1586 1588 1589 1591 1591 1593 1593
1561 1562 1563 1562 1564 1564 1565 1566 1567 1567 1567 1567 1566 1566 1565 1564 1563 1562 1561 1562 1561 1562 1564 1566 1569 1572 1575 1577 1578 1579 1579 1580 1582 1582 1583 1584 1585 1586 1588 1589 1590 1591 1592
1558 1561 1562 1563 1563 1564 1564 1566 1566 1566 1567 1567 1566 1565 1564 1563 1563 1562 1561 1560 1560 1560 1561 1564 1567 1571 1574 1576 1577 1578 1579 1580 1581 1581 1581 1582 1583 1584 1585 1587 1588 1589 1590
1559 1561 1561 1562 1563 1563 1564 1565 1566 1566 1566 1566 1565 1564 1562 1563 1563 1562 1560 1559 1557 1558 1559 1562 1565 1569 1572 1575 1577 1578 1579 1580 1580 1579 1579 1580 1581 1581 1582 1583 1585 1586 1587
1560 1560 1561 1563 1562 1563 1563 1564 1565 1566 1566 1566 1565 1563 1562 1562 1562 1561 1560 1558 1557 1558 1559 1561 1564 1567 1572 1574 1576 1578 1578 1579 1578 1579 1578 1579 1579 1579 1580 1581 1582 1582 1584
1557 1559 1560 1561 1562 1563 1564 1564 1565 1565 1566 1566 1565 1564 1562 1562 1562 1561 1559 1558 1557 1558 1560 1561 1563 1567 1570 1572 1574 1576 1576 1576 1576 1577 1577 1578 1578 1578 1578 1579 1579 1578 1580
1556 1558 1559 1559 1561 1563 1564 1563 1564 1564 1565 1566 1565 1564 1563 1562 1562 1561 1559 1558 1557 1557 1559 1561 1563 1566 1568 1570 1573 1574 1575 1574 1574 1573 1574 1575 1576 1576 1576 1576 1576 1576 1578
1554 1555 1557 1558 1560 1562 1562 1562 1563 1563 1564 1564 1564 1564 1563 1563 1563 1561 1560 1559 1558 1558 1559 1561 1563 1565 1568 1569 1572 1573 1573 1572 1571 1571 1571 1572 1572 1573 1573 1573 1573 1574 1575
1550 1553 1555 1557 1558 1560 1561 1561 1562 1563 1563 1562 1562 1562 1563 1563 1563 1562 1561 1560 1559 1559 1560 1562 1564 1566 1567 1569 1572 1571 1571 1570 1568 1568 1568 1568 1569 1570 1571 1571 1571 1572 1573
1546 1549 1552 1554 1557 1559 1561 1561 1561 1561 1561 1561 1561 1561 1562 1563 1563 1562 1562 1561 1560 1560 1560 1561 1564 1566 1567 1569 1570 1570 1568 1567 1566 1564 1564 1565 1564 1565 1567 1569 1569 1570 1570
1543 1546 1549 1552 1554 1556 1559 1560 1559 1560 1559 1560 1561 1560 1561 1561 1561 1561 1561 1561 1560 1560 1560 1561 1564 1565 1567 1568 1567 1567 1566 1565 1563 1562 1562 1562 1562 1562 1562 1564 1566 1567 1568
1541 1544 1547 1550 1552 1554 1556 1557 1557 1558 1558 1559 1559 1559 1559 1559 1559 1560 1560 1559 1559 1559 1559 1560 1561 1564 1566 1566 1564 1563 1563 1562 1562 1561 1561 1561 1560 1560 1561 1562 1563 1565 1565
1539 1543 1547 1549 1549 1552 1553 1554 1555 1556 1557 1557 1558 1558 1559 1559 1558 1559 1559 1559 1559 1558 1559 1559 1560 1561 1561 1562 1562 1561 1561 1562 1561 1560 1560 1559 1558 1558 1557 1558 1559 1560 1561
Wind_Speed
18 16 14 11 11 10 12 13 14 13 15 14 14 14 14 14 13 12 11 9 9 9 9 11 10 9 12 13 15 15 15 16 16 16 17 17 17 18 18 19 19 19 18
20 17 14 10 10 10 11 13 14 13 13 13 13 14 13 12 13 12 11 12 15 14 13 13 11 11 15 16 17 15 15 16 16 17 17 17 17 17 19 19 19 19 19
20 17 13 11 11 11 12 12 12 12 12 13 14 14 13 14 14 13 13 14 15 14 12 12 12 12 13 14 16 16 15 16 16 16 16 17 15 16 16 17 17 18 19
18 17 14 13 12 12 13 12 12 11 11 12 13 14 14 14 13 13 13 13 13 13 12 12 12 13 12 14 16 16 17 15 14 13 14 16 14 16 15 16 15 16 17
17 15 15 14 14 14 13 13 11 10 11 12 11 12 14 14 13 12 11 11 10 10 12 11 11 12 13 14 15 16 17 16 14 12 13 14 13 14 15 15 16 16 16
17 16 15 14 14 13 13 12 11 12 12 12 11 12 12 12 11 11 10 9 10 9 10 11 10 11 12 15 15 17 15 12 14 12 11 10 10 13 13 14 14 15 14
16 17 16 15 13 13 13 12 11 11 10 10 11 10 10 10 9 8 8 8 8 8 10 11 10 11 13 12 12 12 10 11 12 10 9 9 11 12 12 13 14 14 14
10 15 15 15 13 13 12 11 10 9 8 7 8 9 9 8 8 5 5 6 7 8 9 8 7 10 12 10 8 10 9 10 10 8 9 10 11 14 14 12 13 13 13
11 13 16 15 14 13 11 10 7 6 5 5 6 6 5 7 9 6 4 5 7 8 7 8 8 9 11 10 8 9 8 10 9 7 7 10 10 11 12 10 13 13 11
12 12 14 14 12 11 10 8 5 4 3 4 4 4 3 2 7 6 6 6 6 7 9 8 8 8 9 10 9 7 9 13 10 6 6 10 10 10 12 13 13 13 12
13 12 14 13 12 10 9 8 5 5 4 3 3 3 2 1 1 3 3 9 8 7 7 8 8 8 9 10 10 8 9 10 10 8 8 9 11 11 12 12 13 11 11
15 13 13 13 13 12 10 9 9 6 4 1 2 1 3 3 3 7 2 11 12 10 8 9 9 9 9 10 10 10 5 10 8 9 7 9 9 11 11 11 11 12 10
11 13 13 13 12 12 13 10 8 5 2 1 6 4 5 8 7 6 7 1 13 13 12 11 10 10 10 9 10 11 7 7 6 10 8 8 9 11 11 12 12 12 12
14 12 11 11 12 13 10 7 5 3 2 3 6 8 6 9 14 7 3 4 7 13 14 13 12 12 11 9 8 12 10 8 8 8 6 8 10 10 10 9 11 11 13
13 11 12 13 14 11 10 6 2 4 4 6 7 7 6 8 8 7 5 3 7 12 15 15 15 15 14 11 8 9 8 7 8 7 8 8 10 11 11 11 11 11 12
16 12 12 14 11 9 9 7 5 5 5 5 6 6 4 7 7 6 4 2 5 8 13 16 15 17 13 10 10 10 7 5 4 5 7 12 10 11 13 14 14 14 14
18 15 15 13 13 8 10 8 6 6 8 7 6 8 10 7 6 6 5 0 5 7 10 13 16 18 15 10 8 8 9 7 6 4 2 7 9 11 11 12 16 16 17
16 18 15 17 16 13 12 10 9 11 10 8 7 7 4 5 6 5 5 2 4 8 11 12 14 18 16 11 9 8 8 7 5 5 4 4 6 7 11 13 15 20 22
18 18 18 20 20 17 14 11 11 9 9 5 4 3 4 3 4 4 7 4 3 9 12 12 13 17 16 13 10 10 11 9 8 7 7 8 7 9 12 14 14 13 22
21 23 17 18 20 15 13 13 13 12 10 7 4 3 3 1 2 4 6 4 3 10 13 13 14 15 14 14 11 10 13 12 11 12 11 11 11 11 10 11 14 14 21
20 22 21 20 21 19 16 16 14 12 8 7 5 4 4 3 3 3 3 3 0 9 11 13 14 15 14 13 11 10 12 13 14 14 14 15 14 12 12 11 11 12 19
23 22 22 21 23 22 17 14 15 11 9 11 9 6 5 5 4 3 3 1 1 9 14 14 16 15 13 12 10 6 12 14 17 15 18 17 14 13 13 12 11 10 12
27 28 26 23 22 18 16 14 14 12 13 10 7 5 5 7 6 4 4 3 3 9 12 13 15 15 13 11 9 9 4 5 8 11 18 15 12 14 13 13 12 11 11
24 23 26 23 20 19 17 18 17 15 15 14 12 9 7 8 8 7 5 4 5 7 13 14 15 15 13 10 9 12 12 11 4 4 6 7 10 13 12 12 13 13 13
25 24 23 20 18 18 19 20 18 18 13 10 9 10 6 11 11 10 9 7 3 8 11 16 18 18 14 12 12 12 12 11 12 11 12 8 7 7 13 14 15 14 13
30 29 26 21 19 21 20 18 21 20 16 17 15 13 10 8 13 13 11 10 8 9 13 13 16 19 17 16 16 16 16 14 13 13 14 13 11 8 7 10 15 15 16
Wind_Direction
156 142 136 120 110 110 116 124 134 126 115 115 119 119 116 120 130 130 131 127 127 129 129 118 109 103 107 116 128 134 126 125 124 121 120 122 121 124 119 121 120 119 123
152 147 144 129 112 113 117 121 126 127 118 119 129 124 121 129 132 132 129 125 121 115 114 112 108 112 110 117 123 127 128 126 127 123 123 118 120 125 126 124 125 122 124
159 154 151 140 125 122 120 119 121 118 119 122 129 125 119 119 121 118 124 126 124 118 119 121 120 117 123 124 129 131 130 129 132 132 127 120 123 122 126 124 128 131 125
152 151 151 145 136 130 124 118 116 118 122 121 126 123 122 119 121 118 116 120 120 118 118 122 120 126 132 134 133 135 135 137 136 132 130 127 126 133 133 131 134 130 129
144 148 151 147 144 138 128 122 117 111 121 125 125 124 123 121 123 123 117 117 117 120 119 121 121 125 136 139 142 140 139 139 138 132 137 138 132 144 145 145 141 134 136
147 150 151 154 149 142 133 126 120 109 111 124 122 120 123 124 123 126 129 135 136 137 134 129 126 131 133 139 150 147 145 137 134 128 143 146 152 153 154 153 146 146 147
151 157 158 157 155 148 137 129 122 112 113 121 125 125 126 127 126 123 130 137 147 141 136 132 134 141 138 141 146 156 160 149 140 134 141 157 157 149 147 145 149 148 143
152 162 161 160 157 153 142 132 125 117 116 125 132 134 136 132 123 116 135 147 149 151 150 140 149 152 157 150 144 162 154 155 151 142 141 148 161 157 157 157 154 147 151
168 171 167 169 162 159 149 139 132 127 123 125 129 134 136 140 142 140 156 161 165 161 154 144 150 167 166 162 146 172 167 154 162 155 151 155 161 167 165 168 161 157 161
151 161 171 167 167 162 156 148 146 135 125 122 136 122 85 154 170 183 176 183 180 178 177 166 156 166 182 182 174 173 178 173 175 169 171 171 174 181 178 179 170 167 160
149 149 160 160 159 157 159 153 156 142 146 138 154 137 115 74 216 246 237 198 192 189 184 187 175 171 189 198 185 181 184 191 202 205 173 184 191 192 193 186 173 174 170
142 149 148 150 155 158 158 150 145 143 158 125 63 346 230 59 7 225 282 201 201 198 198 190 191 189 194 196 191 186 175 188 194 180 199 200 199 203 190 187 187 186 181
156 155 141 144 155 152 149 146 146 146 177 230 355 360 340 341 329 336 241 129 204 211 206 205 193 195 197 204 204 195 186 193 184 196 211 209 211 199 201 203 200 197 197
172 167 168 159 157 163 169 169 186 235 254 293 300 329 331 338 1 1 322 203 197 206 213 208 206 201 194 198 214 202 206 217 217 205 207 216 211 214 215 208 211 210 208
189 185 184 177 181 183 184 178 227 222 247 243 270 318 308 335 0 3 350 226 200 210 212 214 217 208 199 200 210 214 215 221 223 230 234 223 214 221 226 225 221 221 218
196 197 199 201 200 203 211 202 187 241 275 293 315 321 333 351 346 10 11 215 192 197 211 214 210 206 203 213 191 205 199 196 217 238 235 220 227 228 238 234 232 229 225
200 212 226 215 205 219 223 210 208 254 289 297 319 335 326 329 354 2 358 114 167 168 184 195 200 196 198 200 188 192 202 209 232 238 216 211 223 231 236 231 235 236 230
214 222 233 219 211 222 230 235 247 275 272 281 301 321 337 352 355 33 20 88 159 180 177 177 188 192 199 201 201 218 223 223 228 228 225 231 237 237 244 245 244 252 225
218 220 228 224 221 229 244 223 228 224 240 249 273 314 12 9 357 44 37 56 146 183 185 182 186 195 204 211 209 236 241 229 239 235 241 255 254 257 252 251 250 239 212
228 226 233 226 215 218 195 186 197 213 226 233 251 246 317 325 41 36 29 41 132 179 180 181 186 193 197 198 220 239 251 257 254 249 252 255 258 263 262 252 241 239 222
222 224 229 224 204 202 200 198 206 214 232 247 250 258 265 252 284 353 29 23 347 187 187 188 187 186 192 201 217 235 250 252 253 255 259 261 260 262 253 256 248 241 228
234 234 225 222 207 212 217 208 212 218 244 267 244 232 246 242 262 303 349 317 318 182 181 186 196 197 192 200 210 236 264 257 258 257 257 269 261 255 261 253 251 248 239
231 231 223 222 213 216 208 199 208 230 242 250 242 258 263 241 249 262 315 327 269 201 190 187 189 191 193 206 219 239 228 258 295 268 268 276 267 260 256 248 247 247 247
227 220 223 223 223 222 221 217 224 233 249 252 265 269 260 252 253 253 250 297 240 205 198 195 203 207 219 220 224 236 265 277 283 299 319 302 269 260 254 240 239 239 243
228 224 222 227 226 227 229 226 230 236 240 253 255 263 262 247 247 244 240 236 252 215 200 205 211 218 230 231 228 232 255 269 267 278 296 292 322 272 261 266 258 248 248
226 222 219 227 234 226 224 229 230 237 248 252 254 259 258 257 239 246 245 249 253 240 221 224 226 225 228 244 237 233 248 262 279 273 282 298 305 301 287 273 259 258 257